FLOCK 2K-37

Last updated on Wed Feb 14 2018 16:20:52 GMT+0000 (Coordinated Universal Time)

1 42867U 17042AU 18044.79410819 .00007222 00000-0 21018-3 0 9995 2 42867 96.9929 307.6328 0010371 189.9982 170.1058 15.35650623 32698
UTC large
Height (km)
Speed (km/s)
/
Latitude / Longitude
Inclination (degrees)
Orbital Period (minutes)
Azimuth
Elevation
Range (km)
Doppler Factor

Next 0 passes for location: London (51.5072 / 0.1276)

Sorry there are no passes over London.